| time (UTC) | temp F | wind direction | speed knots | gust knots | rain 1hr in | rain 24hr in | rain mn in | humidity % | barometer mb |
| 20260507200656 | 87 | 149 | 4.3 | 5.2 | 0.00 | 0.00 | 0.00 | 69 | 1016.6 |
| 20260507200152 | 86 | 129 | 1.7 | 1.7 | 0.00 | 0.00 | 0.00 | 70 | 1016.8 |
| 20260507195649 | 86 | 88 | 0.9 | 0.9 | 0.00 | 0.00 | 0.00 | 72 | 1016.7 |
| 20260507195146 | 86 | 146 | 3.5 | 4.3 | 0.00 | 0.00 | 0.00 | 73 | 1016.9 |
| 20260507194643 | 86 | 125 | 1.7 | 1.7 | 0.00 | 0.00 | 0.00 | 73 | 1016.8 |
| 20260507194139 | 87 | 74 | 1.7 | 1.7 | 0.00 | 0.00 | 0.00 | 72 | 1016.8 |
| 20260507193636 | 86 | 106 | 1.7 | 2.6 | 0.00 | 0.00 | 0.00 | 73 | 1017.0 |
| 20260507193133 | 87 | 147 | 3.5 | 4.3 | 0.00 | 0.00 | 0.00 | 72 | 1016.9 |
| 20260507192629 | 86 | 169 | 0.9 | 0.9 | 0.00 | 0.00 | 0.00 | 73 | 1016.8 |
| 20260507192126 | 86 | 118 | 3.5 | 5.2 | 0.00 | 0.00 | 0.00 | 74 | 1017.0 |
| 20260507191621 | 87 | 160 | 5.2 | 7.0 | 0.00 | 0.00 | 0.00 | 72 | 1017.1 |
| 20260507191118 | 87 | 143 | 2.6 | 4.3 | 0.00 | 0.00 | 0.00 | 74 | 1017.1 |
| 20260507190616 | 86 | 115 | 7.0 | 7.8 | 0.00 | 0.00 | 0.00 | 73 | 1017.1 |
| 20260507190115 | 85 | 128 | 3.5 | 4.3 | 0.00 | 0.00 | 0.00 | 74 | 1017.4 |
| 20260507185613 | 86 | 137 | 3.5 | 5.2 | 0.00 | 0.00 | 0.00 | 74 | 1017.5 |
| 20260507185109 | 86 | 139 | 4.3 | 5.2 | 0.00 | 0.00 | 0.00 | 74 | 1017.5 |
| 20260507184607 | 87 | 133 | 4.3 | 6.1 | 0.00 | 0.00 | 0.00 | 73 | 1017.5 |
| 20260507184105 | 87 | 168 | 5.2 | 6.1 | 0.00 | 0.00 | 0.00 | 73 | 1017.6 |
| 20260507183601 | 86 | 149 | 2.6 | 5.2 | 0.00 | 0.00 | 0.00 | 74 | 1017.6 |
| 20260507183058 | 86 | 158 | 5.2 | 7.0 | 0.00 | 0.00 | 0.00 | 73 | 1017.6 |
| 20260507182554 | 86 | 120 | 4.3 | 6.1 | 0.00 | 0.00 | 0.00 | 74 | 1017.6 |
| 20260507182050 | 85 | 154 | 3.5 | 4.3 | 0.00 | 0.00 | 0.00 | 75 | 1017.6 |
| 20260507181547 | 86 | 148 | 7.0 | 7.8 | 0.00 | 0.00 | 0.00 | 73 | 1017.7 |
| 20260507181043 | 86 | 132 | 4.3 | 5.2 | 0.00 | 0.00 | 0.00 | 73 | 1017.9 |
| 20260507180539 | 86 | 125 | 3.5 | 5.2 | 0.00 | 0.00 | 0.00 | 73 | 1017.8 |
| 20260507180037 | 86 | 127 | 3.5 | 4.3 | 0.00 | 0.00 | 0.00 | 73 | 1018.0 |
| 20260507175533 | 87 | 132 | 6.1 | 6.1 | 0.00 | 0.00 | 0.00 | 73 | 1018.0 |
| 20260507175031 | 86 | 105 | 6.1 | 7.0 | 0.00 | 0.00 | 0.00 | 73 | 1018.0 |
| 20260507174527 | 86 | 104 | 1.7 | 1.7 | 0.00 | 0.00 | 0.00 | 74 | 1018.2 |
| 20260507174025 | 86 | 138 | 5.2 | 6.1 | 0.00 | 0.00 | 0.00 | 72 | 1018.1 |
| 20260507173522 | 86 | 170 | 2.6 | 2.6 | 0.00 | 0.00 | 0.00 | 74 | 1018.3 |
| 20260507173020 | 87 | 160 | 5.2 | 6.1 | 0.00 | 0.00 | 0.00 | 71 | 1018.3 |
| 20260507172515 | 87 | 137 | 3.5 | 5.2 | 0.00 | 0.00 | 0.00 | 71 | 1018.3 |
| 20260507172012 | 87 | 127 | 4.3 | 5.2 | 0.00 | 0.00 | 0.00 | 71 | 1018.4 |
| 20260507171507 | 86 | 124 | 2.6 | 4.3 | 0.00 | 0.00 | 0.00 | 72 | 1018.3 |
| 20260507171005 | 87 | 179 | 3.5 | 5.2 | 0.00 | 0.00 | 0.00 | 73 | 1018.5 |
| 20260507170502 | 86 | 145 | 4.3 | 5.2 | 0.00 | 0.00 | 0.00 | 73 | 1018.4 |
| 20260507165958 | 86 | 187 | 2.6 | 2.6 | 0.00 | 0.00 | 0.00 | 73 | 1018.5 |
| 20260507165454 | 86 | 181 | 5.2 | 6.1 | 0.00 | 0.00 | 0.00 | 72 | 1018.6 |
| 20260507164950 | 86 | 180 | 2.6 | 4.3 | 0.00 | 0.00 | 0.00 | 73 | 1018.6 |
| 20260507164447 | 86 | 164 | 5.2 | 6.1 | 0.00 | 0.00 | 0.00 | 73 | 1018.7 |
| 20260507163944 | 85 | 121 | 2.6 | 2.6 | 0.00 | 0.00 | 0.00 | 75 | 1018.7 |
| 20260507163441 | 86 | 136 | 2.6 | 4.3 | 0.00 | 0.00 | 0.00 | 75 | 1018.8 |
| 20260507162938 | 86 | 144 | 4.3 | 7.0 | 0.00 | 0.00 | 0.00 | 74 | 1018.8 |
| 20260507162433 | 86 | 167 | 2.6 | 2.6 | 0.00 | 0.00 | 0.00 | 74 | 1018.6 |
| 20260507161931 | 84 | 86 | 4.3 | 5.2 | 0.00 | 0.00 | 0.00 | 77 | 1018.8 |
| 20260507161427 | 84 | 142 | 5.2 | 6.1 | 0.00 | 0.00 | 0.00 | 76 | 1018.9 |
| 20260507160924 | 85 | 77 | 4.3 | 4.3 | 0.00 | 0.00 | 0.00 | 75 | 1018.9 |
| 20260507160420 | 85 | 126 | 2.6 | 2.6 | 0.00 | 0.00 | 0.00 | 74 | 1019.2 |
| 20260507155916 | 85 | 116 | 4.3 | 6.1 | 0.00 | 0.00 | 0.00 | 75 | 1018.9 |
| 20260507155412 | 84 | 78 | 2.6 | 2.6 | 0.00 | 0.00 | 0.00 | 76 | 1018.9 |
| 20260507154909 | 84 | 104 | 0.9 | 1.7 | 0.00 | 0.00 | 0.00 | 76 | 1018.9 |
| 20260507154406 | 85 | 96 | 4.3 | 7.0 | 0.00 | 0.00 | 0.00 | 76 | 1018.9 |
| 20260507153903 | 85 | 106 | 4.3 | 5.2 | 0.00 | 0.00 | 0.00 | 75 | 1018.8 |
| 20260507153400 | 84 | 122 | 5.2 | 6.1 | 0.00 | 0.00 | 0.00 | 76 | 1019.0 |
| 20260507152856 | 84 | 140 | 3.5 | 4.3 | 0.00 | 0.00 | 0.00 | 76 | 1018.9 |
| 20260507152352 | 84 | 140 | 1.7 | 2.6 | 0.00 | 0.00 | 0.00 | 78 | 1018.7 |
| 20260507151848 | 84 | 104 | 1.7 | 2.6 | 0.00 | 0.00 | 0.00 | 78 | 1018.9 |
| 20260507151344 | 85 | 110 | 4.3 | 6.1 | 0.00 | 0.00 | 0.00 | 76 | 1019.0 |
| 20260507150842 | 86 | 140 | 6.1 | 6.1 | 0.00 | 0.00 | 0.00 | 74 | 1019.0 |
| 20260507150338 | 85 | 89 | 1.7 | 1.7 | 0.00 | 0.00 | 0.00 | 76 | 1018.9 |
| 20260507145835 | 85 | 139 | 3.5 | 5.2 | 0.00 | 0.00 | 0.00 | 76 | 1019.2 |
| 20260507145331 | 84 | 162 | 2.6 | 2.6 | 0.00 | 0.00 | 0.00 | 77 | 1018.9 |
| 20260507144828 | 84 | 84 | 0.0 | 0.9 | 0.00 | 0.00 | 0.00 | 77 | 1019.2 |
| 20260507144320 | 84 | 136 | 2.6 | 2.6 | 0.00 | 0.00 | 0.00 | 76 | 1019.0 |
| 20260507143816 | 84 | 78 | 2.6 | 2.6 | 0.00 | 0.00 | 0.00 | 75 | 1018.9 |
| 20260507143314 | 86 | 109 | 3.5 | 5.2 | 0.00 | 0.00 | 0.00 | 74 | 1018.7 |
| 20260507142809 | 85 | 94 | 3.5 | 6.1 | 0.00 | 0.00 | 0.00 | 74 | 1018.8 |
| 20260507142307 | 84 | 142 | 2.6 | 2.6 | 0.00 | 0.00 | 0.00 | 75 | 1018.8 |
| 20260507141803 | 84 | 107 | 2.6 | 2.6 | 0.00 | 0.00 | 0.00 | 75 | 1018.8 |
| 20260507141300 | 84 | 147 | 4.3 | 5.2 | 0.00 | 0.00 | 0.00 | 75 | 1019.0 |
| 20260507140756 | 85 | 96 | 4.3 | 5.2 | 0.00 | 0.00 | 0.00 | 75 | 1018.7 |
| 20260507140253 | 85 | 141 | 5.2 | 7.0 | 0.00 | 0.00 | 0.00 | 75 | 1018.9 |
| 20260507135750 | 84 | 87 | 2.6 | 2.6 | 0.00 | 0.00 | 0.00 | 76 | 1018.7 |
| 20260507135248 | 84 | 111 | 4.3 | 5.2 | 0.00 | 0.00 | 0.00 | 75 | 1019.0 |
| 20260507134744 | 84 | 177 | 5.2 | 6.1 | 0.00 | 0.00 | 0.00 | 75 | 1018.7 |
| 20260507134240 | 85 | 138 | 3.5 | 5.2 | 0.00 | 0.00 | 0.00 | 75 | 1018.7 |
| 20260507133736 | 84 | 153 | 4.3 | 5.2 | 0.00 | 0.00 | 0.00 | 75 | 1018.7 |
| 20260507133233 | 84 | 109 | 3.5 | 5.2 | 0.00 | 0.00 | 0.00 | 75 | 1018.6 |
| 20260507132731 | 84 | 182 | 3.5 | 4.3 | 0.00 | 0.00 | 0.00 | 74 | 1018.6 |
| 20260507132227 | 84 | 143 | 2.6 | 4.3 | 0.00 | 0.00 | 0.00 | 76 | 1018.5 |
| 20260507131724 | 84 | 166 | 2.6 | 4.3 | 0.00 | 0.00 | 0.00 | 76 | 1018.6 |
| 20260507131221 | 83 | 154 | 2.6 | 4.3 | 0.00 | 0.00 | 0.00 | 77 | 1018.7 |
| 20260507130718 | 83 | 159 | 3.5 | 5.2 | 0.00 | 0.00 | 0.00 | 77 | 1018.4 |
| 20260507130216 | 84 | 113 | 1.7 | 2.6 | 0.00 | 0.00 | 0.00 | 76 | 1018.3 |
| 20260507125714 | 84 | 99 | 1.7 | 1.7 | 0.00 | 0.00 | 0.00 | 77 | 1018.4 |
| 20260507125212 | 84 | 127 | 2.6 | 4.3 | 0.00 | 0.00 | 0.00 | 77 | 1018.2 |
| 20260507124708 | 84 | 126 | 3.5 | 4.3 | 0.00 | 0.00 | 0.00 | 79 | 1018.3 |
| 20260507124205 | 83 | 118 | 0.9 | 0.9 | 0.00 | 0.00 | 0.00 | 79 | 1018.3 |
| 20260507123703 | 83 | 175 | 2.6 | 4.3 | 0.00 | 0.00 | 0.00 | 79 | 1018.3 |
| 20260507123200 | 83 | 120 | 2.6 | 4.3 | 0.00 | 0.00 | 0.00 | 80 | 1018.2 |
| 20260507122655 | 83 | 129 | 4.3 | 5.2 | 0.00 | 0.00 | 0.00 | 79 | 1018.4 |
| 20260507122151 | 82 | 116 | 3.5 | 4.3 | 0.00 | 0.00 | 0.00 | 80 | 1018.1 |
| 20260507121648 | 82 | 108 | 2.6 | 4.3 | 0.00 | 0.00 | 0.00 | 80 | 1018.2 |
| 20260507121143 | 81 | 126 | 3.5 | 5.2 | 0.00 | 0.00 | 0.00 | 81 | 1018.2 |
| 20260507120640 | 81 | 135 | 1.7 | 1.7 | 0.00 | 0.00 | 0.00 | 81 | 1018.0 |
| 20260507120137 | 82 | 131 | 2.6 | 2.6 | 0.00 | 0.00 | 0.00 | 80 | 1018.1 |
| 20260507115633 | 82 | 114 | 1.7 | 2.6 | 0.00 | 0.00 | 0.00 | 80 | 1018.1 |
| 20260507115128 | 82 | 126 | 4.3 | 5.2 | 0.00 | 0.00 | 0.00 | 81 | 1018.1 |
| 20260507114625 | 81 | 114 | 0.9 | 0.9 | 0.00 | 0.00 | 0.00 | 81 | 1018.2 |
| 20260507114122 | 81 | 148 | 2.6 | 4.3 | 0.00 | 0.00 | 0.00 | 81 | 1018.1 |
| 20260507113619 | 81 | 127 | 2.6 | 4.3 | 0.00 | 0.00 | 0.00 | 81 | 1018.0 |
| 20260507113116 | 80 | 134 | 1.7 | 1.7 | 0.00 | 0.00 | 0.00 | 82 | 1017.8 |
| 20260507112614 | 80 | 129 | 3.5 | 5.2 | 0.00 | 0.00 | 0.00 | 82 | 1017.7 |
| 20260507112111 | 80 | 171 | 1.7 | 2.6 | 0.00 | 0.00 | 0.00 | 82 | 1017.6 |
| 20260507111608 | 80 | 161 | 4.3 | 6.1 | 0.00 | 0.00 | 0.00 | 82 | 1017.7 |
| 20260507111104 | 80 | 110 | 2.6 | 2.6 | 0.00 | 0.00 | 0.00 | 82 | 1017.5 |
| 20260507110601 | 80 | 143 | 2.6 | 4.3 | 0.00 | 0.00 | 0.00 | 82 | 1017.5 |
| 20260507110057 | 80 | 107 | 3.5 | 4.3 | 0.00 | 0.00 | 0.00 | 82 | 1017.4 |
| 20260507105554 | 80 | 113 | 1.7 | 1.7 | 0.00 | 0.00 | 0.00 | 82 | 1017.3 |
| 20260507105050 | 80 | 129 | 2.6 | 4.3 | 0.00 | 0.00 | 0.00 | 82 | 1017.2 |
| 20260507104548 | 80 | 123 | 5.2 | 7.0 | 0.00 | 0.00 | 0.00 | 81 | 1016.9 |
| 20260507104044 | 80 | 126 | 2.6 | 4.3 | 0.00 | 0.00 | 0.00 | 82 | 1017.2 |
| 20260507103540 | 80 | 128 | 4.3 | 6.1 | 0.00 | 0.00 | 0.00 | 81 | 1017.0 |
| 20260507103037 | 80 | 109 | 3.5 | 4.3 | 0.00 | 0.00 | 0.00 | 81 | 1017.1 |
| 20260507102534 | 80 | 150 | 3.5 | 4.3 | 0.00 | 0.00 | 0.00 | 81 | 1017.1 |
| 20260507102031 | 80 | 126 | 5.2 | 6.1 | 0.00 | 0.00 | 0.00 | 82 | 1017.1 |
| 20260507101525 | 80 | 125 | 2.6 | 4.3 | 0.00 | 0.00 | 0.00 | 81 | 1017.1 |
| 20260507101022 | 80 | 169 | 4.3 | 5.2 | 0.00 | 0.00 | 0.00 | 81 | 1016.7 |
| 20260507100519 | 80 | 116 | 3.5 | 6.1 | 0.00 | 0.00 | 0.00 | 81 | 1017.1 |
| 20260507100017 | 80 | 108 | 2.6 | 2.6 | 0.00 | 0.00 | 0.00 | 81 | 1016.9 |
| 20260507095515 | 80 | 76 | 4.3 | 7.0 | 0.00 | 0.00 | 0.00 | 81 | 1016.9 |
| 20260507095011 | 80 | 122 | 1.7 | 2.6 | 0.00 | 0.00 | 0.00 | 81 | 1016.9 |
| 20260507094508 | 80 | 111 | 1.7 | 1.7 | 0.00 | 0.00 | 0.00 | 81 | 1016.8 |
| 20260507094005 | 80 | 127 | 6.1 | 7.0 | 0.00 | 0.00 | 0.00 | 81 | 1016.9 |
| 20260507093502 | 80 | 132 | 2.6 | 2.6 | 0.00 | 0.00 | 0.00 | 80 | 1016.7 |
| 20260507093001 | 80 | 121 | 3.5 | 5.2 | 0.00 | 0.00 | 0.00 | 80 | 1016.7 |
| 20260507092456 | 80 | 112 | 2.6 | 4.3 | 0.00 | 0.00 | 0.00 | 80 | 1016.9 |
| 20260507091953 | 80 | 151 | 3.5 | 5.2 | 0.00 | 0.00 | 0.00 | 80 | 1016.7 |
| 20260507091450 | 80 | 116 | 3.5 | 4.3 | 0.00 | 0.00 | 0.00 | 80 | 1016.5 |
| 20260507090946 | 80 | 110 | 4.3 | 6.1 | 0.00 | 0.00 | 0.00 | 80 | 1016.4 |
| 20260507090442 | 80 | 114 | 2.6 | 2.6 | 0.00 | 0.00 | 0.00 | 80 | 1016.6 |
| 20260507085939 | 80 | 165 | 6.1 | 7.0 | 0.00 | 0.00 | 0.00 | 80 | 1016.5 |
| 20260507085436 | 80 | 117 | 4.3 | 6.1 | 0.00 | 0.00 | 0.00 | 80 | 1016.9 |
| 20260507084933 | 80 | 104 | 4.3 | 6.1 | 0.00 | 0.00 | 0.00 | 79 | 1016.5 |
| 20260507084430 | 80 | 106 | 4.3 | 6.1 | 0.00 | 0.00 | 0.00 | 79 | 1016.5 |
| 20260507083927 | 80 | 115 | 4.3 | 7.0 | 0.00 | 0.00 | 0.00 | 79 | 1016.4 |
| 20260507083423 | 80 | 163 | 2.6 | 2.6 | 0.00 | 0.00 | 0.00 | 79 | 1016.6 |
| 20260507082919 | 80 | 95 | 6.1 | 7.8 | 0.00 | 0.00 | 0.00 | 79 | 1016.6 |
| 20260507082415 | 80 | 123 | 4.3 | 6.1 | 0.00 | 0.00 | 0.00 | 79 | 1016.5 |
| 20260507081913 | 80 | 99 | 3.5 | 5.2 | 0.00 | 0.00 | 0.00 | 79 | 1016.7 |
| 20260507081409 | 80 | 114 | 4.3 | 6.1 | 0.00 | 0.00 | 0.00 | 79 | 1016.5 |
| 20260507080906 | 80 | 113 | 4.3 | 6.1 | 0.00 | 0.00 | 0.00 | 78 | 1016.6 |
| 20260507080402 | 80 | 164 | 7.8 | 9.6 | 0.00 | 0.00 | 0.00 | 79 | 1016.7 |
| 20260507075857 | 80 | 120 | 5.2 | 7.0 | 0.00 | 0.00 | 0.00 | 78 | 1016.8 |
| 20260507075353 | 80 | 127 | 6.1 | 7.0 | 0.00 | 0.00 | 0.00 | 78 | 1016.7 |
| 20260507074850 | 80 | 113 | 2.6 | 4.3 | 0.00 | 0.00 | 0.00 | 79 | 1016.9 |
| 20260507074347 | 80 | 114 | 5.2 | 6.1 | 0.00 | 0.00 | 0.00 | 78 | 1016.8 |
| 20260507073844 | 80 | 107 | 4.3 | 6.1 | 0.00 | 0.00 | 0.00 | 78 | 1016.7 |
| 20260507073341 | 80 | 135 | 6.1 | 7.0 | 0.00 | 0.00 | 0.00 | 78 | 1016.8 |
| 20260507072838 | 80 | 91 | 7.8 | 7.8 | 0.00 | 0.00 | 0.00 | 78 | 1016.9 |
| 20260507072336 | 80 | 113 | 3.5 | 5.2 | 0.00 | 0.00 | 0.00 | 78 | 1016.9 |
| 20260507071833 | 80 | 111 | 2.6 | 4.3 | 0.00 | 0.00 | 0.00 | 78 | 1017.0 |
| 20260507071330 | 80 | 117 | 7.0 | 8.7 | 0.00 | 0.00 | 0.00 | 78 | 1016.9 |
| 20260507070826 | 80 | 103 | 3.5 | 5.2 | 0.00 | 0.00 | 0.00 | 78 | 1017.1 |
| 20260507070324 | 80 | 143 | 2.6 | 4.3 | 0.00 | 0.00 | 0.00 | 78 | 1017.2 |
| 20260507065820 | 80 | 138 | 7.0 | 8.7 | 0.00 | 0.00 | 0.00 | 78 | 1017.1 |
| 20260507065317 | 80 | 126 | 6.1 | 9.6 | 0.00 | 0.00 | 0.00 | 78 | 1017.3 |
| 20260507064814 | 80 | 125 | 2.6 | 5.2 | 0.00 | 0.00 | 0.00 | 78 | 1017.4 |
| 20260507064313 | 80 | 116 | 4.3 | 7.8 | 0.00 | 0.00 | 0.00 | 78 | 1017.3 |
| 20260507063810 | 80 | 117 | 6.1 | 7.8 | 0.00 | 0.00 | 0.00 | 79 | 1017.5 |
| 20260507063307 | 80 | 81 | 3.5 | 4.3 | 0.00 | 0.00 | 0.00 | 78 | 1017.5 |
| 20260507062804 | 80 | 124 | 6.1 | 8.7 | 0.00 | 0.00 | 0.00 | 78 | 1017.7 |
| 20260507062301 | 80 | 149 | 3.5 | 5.2 | 0.00 | 0.00 | 0.00 | 78 | 1017.3 |
| 20260507061759 | 80 | 125 | 1.7 | 1.7 | 0.00 | 0.00 | 0.00 | 78 | 1017.5 |
| 20260507061256 | 80 | 124 | 4.3 | 7.0 | 0.00 | 0.00 | 0.00 | 78 | 1017.3 |
| 20260507060754 | 80 | 122 | 5.2 | 7.0 | 0.00 | 0.00 | 0.00 | 78 | 1017.5 |
| 20260507060250 | 80 | 128 | 7.8 | 11.3 | 0.00 | 0.00 | 0.00 | 78 | 1017.5 |
| 20260507055747 | 80 | 107 | 4.3 | 6.1 | 0.00 | 0.00 | 0.00 | 78 | 1017.7 |
| 20260507055242 | 80 | 90 | 4.3 | 7.0 | 0.00 | 0.00 | 0.00 | 79 | 1017.6 |
| 20260507054739 | 80 | 111 | 6.1 | 8.7 | 0.00 | 0.00 | 0.00 | 78 | 1017.7 |
| 20260507054236 | 80 | 128 | 6.1 | 7.8 | 0.00 | 0.00 | 0.00 | 77 | 1017.7 |
| 20260507053733 | 80 | 124 | 2.6 | 2.6 | 0.00 | 0.00 | 0.00 | 77 | 1018.0 |
| 20260507053231 | 80 | 111 | 8.7 | 11.3 | 0.00 | 0.00 | 0.00 | 77 | 1017.8 |
| 20260507052730 | 80 | 108 | 6.1 | 7.0 | 0.00 | 0.00 | 0.00 | 78 | 1017.9 |
| 20260507052225 | 80 | 116 | 4.3 | 7.0 | 0.00 | 0.00 | 0.00 | 77 | 1018.0 |
| 20260507051724 | 80 | 115 | 3.5 | 4.3 | 0.00 | 0.00 | 0.00 | 77 | 1018.1 |
| 20260507051220 | 80 | 124 | 4.3 | 7.0 | 0.00 | 0.00 | 0.00 | 77 | 1018.0 |
| 20260507050717 | 80 | 113 | 7.8 | 9.6 | 0.00 | 0.00 | 0.00 | 77 | 1018.1 |
| 20260507050214 | 80 | 102 | 3.5 | 5.2 | 0.00 | 0.00 | 0.00 | 77 | 1018.1 |
| 20260507045711 | 80 | 132 | 5.2 | 7.0 | 0.00 | 0.00 | 0.00 | 76 | 1018.1 |
| 20260507045207 | 80 | 111 | 7.0 | 7.0 | 0.00 | 0.00 | 0.00 | 76 | 1018.0 |
| 20260507044704 | 80 | 110 | 3.5 | 5.2 | 0.00 | 0.00 | 0.00 | 76 | 1018.2 |
| 20260507044201 | 80 | 97 | 6.1 | 7.0 | 0.00 | 0.00 | 0.00 | 76 | 1018.2 |
| 20260507043657 | 80 | 126 | 3.5 | 6.1 | 0.00 | 0.00 | 0.00 | 76 | 1018.3 |
| 20260507043154 | 80 | 102 | 6.1 | 7.8 | 0.00 | 0.00 | 0.00 | 75 | 1018.4 |
| 20260507042650 | 80 | 113 | 4.3 | 6.1 | 0.00 | 0.00 | 0.00 | 76 | 1018.3 |
| 20260507042145 | 80 | 100 | 3.5 | 4.3 | 0.00 | 0.00 | 0.00 | 76 | 1018.4 |
| 20260507041643 | 81 | 117 | 4.3 | 5.2 | 0.00 | 0.00 | 0.00 | 75 | 1018.3 |
| 20260507041139 | 80 | 83 | 3.5 | 6.1 | 0.00 | 0.00 | 0.00 | 75 | 1018.7 |
| 20260507040636 | 80 | 98 | 4.3 | 7.0 | 0.00 | 0.00 | 0.00 | 76 | 1018.5 |
| 20260507040132 | 80 | 109 | 5.2 | 6.1 | 0.00 | 0.00 | 0.00 | 77 | 1018.4 |
| 20260507035628 | 80 | 110 | 7.0 | 7.8 | 0.00 | 0.00 | 0.00 | 77 | 1018.6 |
| 20260507035124 | 80 | 125 | 6.1 | 7.0 | 0.00 | 0.00 | 0.00 | 77 | 1018.6 |
| 20260507034621 | 80 | 112 | 4.3 | 6.1 | 0.00 | 0.00 | 0.00 | 78 | 1018.2 |
| 20260507034119 | 81 | 96 | 5.2 | 7.0 | 0.00 | 0.00 | 0.00 | 78 | 1018.7 |
| 20260507033617 | 81 | 89 | 8.7 | 9.6 | 0.00 | 0.00 | 0.00 | 77 | 1018.3 |
| 20260507033114 | 81 | 94 | 7.8 | 9.6 | 0.00 | 0.00 | 0.00 | 77 | 1018.4 |
| 20260507032611 | 80 | 84 | 6.1 | 7.0 | 0.00 | 0.00 | 0.00 | 77 | 1018.3 |
| 20260507032107 | 81 | 72 | 5.2 | 7.0 | 0.00 | 0.00 | 0.00 | 78 | 1018.4 |
| 20260507031604 | 81 | 91 | 2.6 | 4.3 | 0.00 | 0.00 | 0.00 | 77 | 1018.4 |
| 20260507031101 | 81 | 99 | 7.0 | 7.8 | 0.00 | 0.00 | 0.00 | 77 | 1018.4 |
| 20260507030557 | 81 | 98 | 4.3 | 6.1 | 0.00 | 0.00 | 0.00 | 77 | 1018.2 |
| 20260507030056 | 81 | 81 | 4.3 | 5.2 | 0.00 | 0.00 | 0.00 | 77 | 1018.3 |
| 20260507025552 | 81 | 87 | 6.1 | 8.7 | 0.00 | 0.00 | 0.00 | 77 | 1018.1 |
| 20260507025049 | 81 | 103 | 5.2 | 7.0 | 0.00 | 0.00 | 0.00 | 77 | 1018.3 |
| 20260507024547 | 81 | 80 | 7.0 | 7.8 | 0.00 | 0.00 | 0.00 | 77 | 1018.1 |
| 20260507024044 | 81 | 99 | 6.1 | 7.0 | 0.00 | 0.00 | 0.00 | 77 | 1018.1 |
| 20260507023539 | 81 | 102 | 8.7 | 8.7 | 0.00 | 0.00 | 0.00 | 77 | 1018.2 |
| 20260507023038 | 81 | 83 | 3.5 | 7.0 | 0.00 | 0.00 | 0.00 | 78 | 1018.0 |
| 20260507022534 | 81 | 105 | 7.0 | 9.6 | 0.00 | 0.00 | 0.00 | 77 | 1018.1 |
| 20260507022029 | 81 | 94 | 6.1 | 9.6 | 0.00 | 0.00 | 0.00 | 77 | 1018.0 |
| 20260507021525 | 81 | 85 | 7.0 | 7.8 | 0.00 | 0.00 | 0.00 | 77 | 1018.1 |
| 20260507021022 | 81 | 90 | 4.3 | 5.2 | 0.00 | 0.00 | 0.00 | 77 | 1018.1 |
| 20260507020520 | 81 | 95 | 7.0 | 8.7 | 0.00 | 0.00 | 0.00 | 77 | 1017.9 |
| 20260507020016 | 81 | 96 | 2.6 | 4.3 | 0.00 | 0.00 | 0.00 | 77 | 1018.0 |
| 20260507015515 | 81 | 100 | 5.2 | 7.8 | 0.00 | 0.00 | 0.00 | 77 | 1018.0 |
| 20260507015012 | 81 | 97 | 3.5 | 6.1 | 0.00 | 0.00 | 0.00 | 78 | 1017.7 |
| 20260507014508 | 81 | 98 | 5.2 | 6.1 | 0.00 | 0.00 | 0.00 | 77 | 1017.8 |
| 20260507014004 | 81 | 107 | 5.2 | 6.1 | 0.00 | 0.00 | 0.00 | 77 | 1018.0 |
| 20260507013501 | 81 | 107 | 4.3 | 6.1 | 0.00 | 0.00 | 0.00 | 77 | 1018.0 |
| 20260507012958 | 81 | 85 | 5.2 | 7.0 | 0.00 | 0.00 | 0.00 | 77 | 1018.1 |
| 20260507012455 | 81 | 116 | 5.2 | 7.0 | 0.00 | 0.00 | 0.00 | 77 | 1017.9 |
| 20260507011951 | 81 | 62 | 1.7 | 1.7 | 0.00 | 0.00 | 0.00 | 77 | 1017.7 |
| 20260507011448 | 81 | 74 | 3.5 | 5.2 | 0.00 | 0.00 | 0.00 | 77 | 1018.0 |
| 20260507010944 | 81 | 68 | 6.1 | 7.0 | 0.00 | 0.00 | 0.00 | 77 | 1017.8 |
| 20260507010439 | 81 | 106 | 5.2 | 7.0 | 0.00 | 0.00 | 0.00 | 77 | 1018.1 |
| 20260507005936 | 81 | 106 | 2.6 | 4.3 | 0.00 | 0.00 | 0.00 | 76 | 1017.9 |
| 20260507005433 | 81 | 108 | 4.3 | 6.1 | 0.00 | 0.00 | 0.00 | 76 | 1018.0 |
| 20260507004930 | 81 | 91 | 2.6 | 2.6 | 0.00 | 0.00 | 0.00 | 76 | 1017.6 |
| 20260507004426 | 81 | 98 | 1.7 | 2.6 | 0.00 | 0.00 | 0.00 | 76 | 1018.0 |
| 20260507003924 | 81 | 82 | 2.6 | 4.3 | 0.00 | 0.00 | 0.00 | 76 | 1017.8 |
| 20260507003419 | 81 | 74 | 1.7 | 2.6 | 0.00 | 0.00 | 0.00 | 76 | 1018.0 |
| 20260507002914 | 81 | 127 | 4.3 | 4.3 | 0.00 | 0.00 | 0.00 | 76 | 1018.0 |
| 20260507002410 | 81 | 91 | 2.6 | 2.6 | 0.00 | 0.00 | 0.00 | 76 | 1017.9 |
| 20260507001908 | 81 | 87 | 2.6 | 4.3 | 0.00 | 0.00 | 0.00 | 76 | 1017.7 |
| 20260507001405 | 81 | 73 | 0.0 | 0.9 | 0.00 | 0.00 | 0.00 | 76 | 1017.8 |
| 20260507000902 | 81 | 108 | 2.6 | 2.6 | 0.00 | 0.00 | 0.00 | 76 | 1017.6 |
| 20260507000358 | 82 | 116 | 1.7 | 4.3 | 0.00 | 0.00 | 0.00 | 76 | 1017.6 |
| 20260506235853 | 82 | 92 | 2.6 | 4.3 | 0.00 | 0.00 | 0.00 | 75 | 1018.0 |
| 20260506235351 | 82 | 83 | 2.6 | 2.6 | 0.00 | 0.00 | 0.00 | 75 | 1017.7 |
| 20260506234846 | 82 | 113 | 3.5 | 4.3 | 0.00 | 0.00 | 0.00 | 75 | 1017.6 |
| 20260506234344 | 82 | 139 | 2.6 | 2.6 | 0.00 | 0.00 | 0.00 | 75 | 1017.9 |
| 20260506233842 | 82 | 94 | 2.6 | 4.3 | 0.00 | 0.00 | 0.00 | 74 | 1017.9 |
| 20260506233337 | 82 | 94 | 2.6 | 4.3 | 0.00 | 0.00 | 0.00 | 74 | 1017.8 |
| 20260506232835 | 82 | 108 | 1.7 | 2.6 | 0.00 | 0.00 | 0.00 | 74 | 1017.9 |
| 20260506232330 | 83 | 84 | 1.7 | 2.6 | 0.00 | 0.00 | 0.00 | 74 | 1017.7 |
| 20260506231827 | 83 | 107 | 4.3 | 6.1 | 0.00 | 0.00 | 0.00 | 74 | 1017.8 |
| 20260506231325 | 83 | 116 | 5.2 | 6.1 | 0.00 | 0.00 | 0.00 | 73 | 1017.9 |
| 20260506230822 | 83 | 80 | 1.7 | 4.3 | 0.00 | 0.00 | 0.00 | 74 | 1017.8 |
| 20260506230319 | 83 | 104 | 2.6 | 2.6 | 0.00 | 0.00 | 0.00 | 73 | 1017.7 |
| 20260506225814 | 83 | 126 | 1.7 | 2.6 | 0.00 | 0.00 | 0.00 | 73 | 1017.7 |
| 20260506225312 | 83 | 88 | 4.3 | 6.1 | 0.00 | 0.00 | 0.00 | 73 | 1017.6 |
| 20260506224809 | 83 | 101 | 1.7 | 1.7 | 0.00 | 0.00 | 0.00 | 73 | 1017.7 |
| 20260506224306 | 83 | 105 | 2.6 | 2.6 | 0.00 | 0.00 | 0.00 | 73 | 1017.5 |
| 20260506223802 | 84 | 106 | 4.3 | 6.1 | 0.00 | 0.00 | 0.00 | 73 | 1017.5 |
| 20260506223257 | 83 | 85 | 0.0 | 0.9 | 0.00 | 0.00 | 0.00 | 73 | 1017.5 |
| 20260506222754 | 83 | 117 | 3.5 | 4.3 | 0.00 | 0.00 | 0.00 | 73 | 1017.6 |
| 20260506222250 | 84 | 136 | 6.1 | 7.0 | 0.00 | 0.00 | 0.00 | 72 | 1017.2 |
| 20260506221748 | 84 | 120 | 2.6 | 2.6 | 0.00 | 0.00 | 0.00 | 72 | 1017.4 |
| 20260506221246 | 84 | 125 | 3.5 | 4.3 | 0.00 | 0.00 | 0.00 | 72 | 1017.1 |
| 20260506220743 | 84 | 146 | 4.3 | 6.1 | 0.00 | 0.00 | 0.00 | 72 | 1017.4 |
| 20260506220238 | 84 | 135 | 4.3 | 5.2 | 0.00 | 0.00 | 0.00 | 73 | 1017.2 |
| 20260506215735 | 84 | 92 | 4.3 | 5.2 | 0.00 | 0.00 | 0.00 | 72 | 1017.2 |
| 20260506215230 | 84 | 114 | 0.9 | 0.9 | 0.00 | 0.00 | 0.00 | 73 | 1017.3 |
| 20260506214722 | 84 | 140 | 2.6 | 4.3 | 0.00 | 0.00 | 0.00 | 72 | 1017.4 |
| 20260506214219 | 84 | 153 | 1.7 | 2.6 | 0.00 | 0.00 | 0.00 | 73 | 1017.3 |
| 20260506213717 | 84 | 137 | 3.5 | 5.2 | 0.00 | 0.00 | 0.00 | 72 | 1017.3 |
| 20260506213214 | 84 | 128 | 2.6 | 2.6 | 0.00 | 0.00 | 0.00 | 72 | 1017.3 |
| 20260506212711 | 84 | 138 | 3.5 | 4.3 | 0.00 | 0.00 | 0.00 | 71 | 1017.3 |
| 20260506212206 | 84 | 133 | 0.9 | 0.9 | 0.00 | 0.00 | 0.00 | 72 | 1017.1 |
| 20260506211702 | 84 | 146 | 5.2 | 7.0 | 0.00 | 0.00 | 0.00 | 70 | 1017.3 |
| 20260506211158 | 85 | 114 | 5.2 | 6.1 | 0.00 | 0.00 | 0.00 | 70 | 1017.3 |
| 20260506210655 | 85 | 130 | 0.9 | 0.9 | 0.00 | 0.00 | 0.00 | 71 | 1017.2 |
| 20260506210152 | 85 | 130 | 2.6 | 4.3 | 0.00 | 0.00 | 0.00 | 70 | 1017.2 |
| 20260506205650 | 85 | 146 | 3.5 | 4.3 | 0.00 | 0.00 | 0.00 | 69 | 1017.2 |
| 20260506205144 | 86 | 131 | 0.9 | 1.7 | 0.00 | 0.00 | 0.00 | 69 | 1017.4 |
| 20260506204642 | 86 | 180 | 4.3 | 5.2 | 0.00 | 0.00 | 0.00 | 69 | 1017.4 |
| 20260506204139 | 85 | 218 | 2.6 | 2.6 | 0.00 | 0.00 | 0.00 | 69 | 1017.6 |
| 20260506203637 | 85 | 136 | 4.3 | 5.2 | 0.00 | 0.00 | 0.00 | 70 | 1017.6 |
| 20260506203133 | 85 | 101 | 4.3 | 5.2 | 0.00 | 0.00 | 0.00 | 70 | 1017.6 |
| 20260506202632 | 85 | 154 | 5.2 | 6.1 | 0.00 | 0.00 | 0.00 | 70 | 1017.7 |
| 20260506202127 | 85 | 121 | 2.6 | 2.6 | 0.00 | 0.00 | 0.00 | 70 | 1017.8 |
| 20260506201625 | 85 | 93 | 0.9 | 1.7 | 0.00 | 0.00 | 0.00 | 70 | 1017.8 |
| 20260506201121 | 86 | 111 | 4.3 | 5.2 | 0.00 | 0.00 | 0.00 | 69 | 1017.6 |